CW5466 Weather Reports


time (UTC)temp
C
wind
direction
speed
KPH
gust
KPH
rain 1hr
cm
rain 24hr
cm
rain mn
cm
humidity
%
barometer
mb
20260906174552 35 126 6.4 14.5 0.00 0.00 0.00 49 1014.9
20260906173050 35 146 3.2 14.5 0.00 0.00 0.00 52 1015.1
20260906171606 34 215 3.2 11.3 0.00 0.00 0.00 53 1015.4
20260906170106 33 140 6.4 14.5 0.00 0.00 0.00 54 1015.6
20260906164554 33 147 6.4 19.3 0.00 0.00 0.00 55 1015.8
20260906163052 33 133 8.0 16.1 0.00 0.00 0.00 56 1015.9
20260906161554 32 159 9.7 16.1 0.00 0.00 0.00 58 1015.9
20260906160054 32 140 8.0 14.5 0.00 0.00 0.00 60 1016.0
20260906154547 32 131 8.0 12.9 0.00 0.00 0.00 61 1016.0
20260906153054 31 226 8.0 16.1 0.00 0.00 0.00 63 1015.8
20260906151555 30 160 8.0 14.5 0.00 0.00 0.00 65 1015.9
20260906150053 30 143 9.7 16.1 0.00 0.00 0.00 68 1015.5
20260906144606 29 148 6.4 16.1 0.00 0.00 0.00 72 1015.5
20260906143107 28 117 9.7 17.7 0.00 0.00 0.00 73 1015.7
20260906141552 27 141 11.3 17.7 0.00 0.00 0.00 75 1015.8
20260906140048 27 142 9.7 16.1 0.00 0.00 0.00 78 1015.8
20260906134545 26 115 6.4 14.5 0.00 0.00 0.00 81 1015.9
20260906133105 25 115 6.4 11.3 0.00 0.00 0.00 84 1015.7
20260906131552 25 111 4.8 9.7 0.00 0.00 0.00 85 1015.7
20260906124548 23 98 3.2 6.4 0.00 0.00 0.00 87 1015.4
20260906123052 23 101 1.6 6.4 0.00 0.00 0.00 89 1015.1
20260906121549 22 109 1.6 4.8 0.00 0.00 0.00 90 1015.1
20260906120048 22 80 3.2 6.4 0.00 0.00 0.00 91 1014.8
20260906114558 21 0 0.0 0.0 0.00 0.00 0.00 91 1014.7
20260906113052 22 0 0.0 0.0 0.00 0.00 0.00 91 1014.6
20260906111545 22 0 0.0 0.0 0.00 0.00 0.00 90 1014.5
20260906110053 22 0 0.0 0.0 0.00 0.00 0.00 90 1014.5
20260906104558 22 0 0.0 1.6 0.00 0.00 0.00 90 1014.4
20260906103051 22 78 0.0 0.0 0.00 0.00 0.00 90 1014.4
20260906101550 22 0 0.0 0.0 0.00 0.00 0.00 89 1014.4
20260906100053 22 0 0.0 0.0 0.00 0.00 0.00 88 1014.3
20260906094608 22 0 0.0 1.6 0.00 0.00 0.00 88 1014.3
20260906093122 22 78 0.0 1.6 0.00 0.00 0.00 88 1014.4
20260906091546 23 0 0.0 1.6 0.00 0.00 0.00 87 1014.3
20260906090058 23 0 0.0 1.6 0.00 0.00 0.00 87 1014.2
20260906084553 23 0 0.0 1.6 0.00 0.00 0.00 86 1014.0
20260906083050 23 0 0.0 1.6 0.00 0.00 0.00 86 1013.9
20260906081548 23 0 0.0 0.0 0.00 0.00 0.00 85 1013.7
20260906080059 23 0 0.0 1.6 0.00 0.00 0.00 84 1013.6
20260906074554 23 0 0.0 0.0 0.00 0.00 0.00 84 1013.6
20260906073054 24 0 0.0 1.6 0.00 0.00 0.00 82 1013.8
20260906071549 24 87 0.0 3.2 0.00 0.00 0.00 82 1013.8
20260906070053 24 0 0.0 0.0 0.00 0.00 0.00 81 1013.8
20260906064551 24 0 0.0 0.0 0.00 0.00 0.00 81 1014.0
20260906063053 25 0 0.0 0.0 0.00 0.00 0.00 80 1014.1
20260906061552 25 0 0.0 0.0 0.00 0.00 0.00 79 1014.1
20260906060049 25 0 0.0 0.0 0.00 0.00 0.00 78 1014.1
20260906054608 25 0 0.0 1.6 0.00 0.00 0.00 77 1014.1
20260906053053 25 82 1.6 3.2 0.00 0.00 0.00 76 1014.1
20260906051602 25 82 1.6 4.8 0.00 0.00 0.00 75 1014.0
20260906050057 25 80 1.6 3.2 0.00 0.00 0.00 75 1014.1
20260906044553 25 75 1.6 6.4 0.00 0.00 0.00 74 1014.1
20260906043051 26 65 1.6 3.2 0.00 0.00 0.00 73 1014.0
20260906041551 26 0 0.0 0.0 0.00 0.00 0.00 74 1013.9
20260906040059 26 0 0.0 0.0 0.00 0.00 0.00 73 1013.9
20260906034554 26 0 0.0 0.0 0.00 0.00 0.00 73 1013.7
20260906033051 26 0 0.0 0.0 0.00 0.00 0.00 72 1013.4
20260906031544 26 0 0.0 0.0 0.00 0.00 0.00 72 1013.3
20260906030052 26 0 0.0 0.0 0.00 0.00 0.00 73 1013.3
20260906024558 26 0 0.0 1.6 0.00 0.00 0.00 72 1013.2
20260906023044 26 0 0.0 0.0 0.00 0.00 0.00 72 1013.0
20260906021554 27 0 0.0 1.6 0.00 0.00 0.00 70 1012.8
20260906020053 27 0 0.0 3.2 0.00 0.00 0.00 67 1012.6
20260906014632 28 86 1.6 3.2 0.00 0.00 0.00 65 1012.4
20260906013100 28 84 3.2 3.2 0.00 0.00 0.00 64 1012.1
20260906011558 29 90 3.2 3.2 0.00 0.00 0.00 63 1012.1
20260906010055 30 82 3.2 3.2 0.00 0.00 0.00 62 1012.1
20260906004544 31 83 1.6 3.2 0.00 0.00 0.00 59 1012.2
20260906003110 32 84 1.6 3.2 0.00 0.00 0.00 56 1012.3
20260906001552 32 92 1.6 3.2 0.00 0.00 0.00 55 1012.4
20260906000053 33 111 1.6 3.2 0.00 0.00 0.00 55 1012.4
20260905234609 33 148 0.0 4.8 0.00 0.00 0.00 53 1012.4
20260905233053 33 139 1.6 4.8 0.00 0.00 0.00 52 1012.3
20260905231551 33 157 1.6 4.8 0.00 0.00 0.00 50 1012.1
20260905230055 34 154 3.2 9.7 0.00 0.00 0.00 49 1012.1
20260905224551 35 144 1.6 6.4 0.00 0.00 0.00 50 1012.1
20260905223052 35 159 4.8 9.7 0.00 0.00 0.00 47 1012.1
20260905221612 35 126 6.4 12.9 0.00 0.00 0.00 45 1012.1
20260905220052 36 119 4.8 14.5 0.00 0.00 0.00 47 1012.1
20260905214555 36 110 6.4 17.7 0.00 0.00 0.00 44 1012.1
20260905213104 36 36 8.0 19.3 0.00 0.00 0.00 41 1012.2
20260905211559 37 227 3.2 9.7 0.00 0.00 0.00 43 1012.5
20260905210053 36 223 4.8 14.5 0.00 0.00 0.00 43 1012.8
20260905204549 36 142 4.8 11.3 0.00 0.00 0.00 45 1013.0
20260905203055 36 146 3.2 8.0 0.00 0.00 0.00 46 1013.2
20260905201612 36 147 0.0 8.0 0.00 0.00 0.00 44 1013.3
20260905200056 36 292 1.6 4.8 0.00 0.00 0.00 43 1013.5
20260905194550 35 106 0.0 4.8 0.00 0.00 0.00 46 1013.6
20260905193110 36 139 3.2 11.3 0.00 0.00 0.00 45 1013.8
20260905191552 36 108 6.4 11.3 0.00 0.00 0.00 43 1013.9
20260905190051 36 159 4.8 12.9 0.00 0.00 0.00 43 1014.1
20260905184552 36 96 8.0 14.5 0.00 0.00 0.00 44 1014.3
20260905183054 36 145 1.6 6.4 0.00 0.00 0.00 44 1014.3
20260905181606 36 247 0.0 9.7 0.00 0.00 0.00 43 1014.4
20260905180043 36 148 1.6 11.3 0.00 0.00 0.00 45 1014.5